Weather past 2 weeks in Port-aux-Francais, Kerguelen Islands

Now
43 °F

Quite cool.


Feels Like: 36 °F
Forecast: 38 / 45 °F
Wind: 13 mph from West

Location: Port-Aux-Francais Iles Kerguelen

Current Time: Dec 27, 2014 at 10:16:49 PM

Latest Report: Dec 27, 2014 at 9:00 PM


Visibility: N/A

Pressure: 29.73 "Hg

Humidity: 57%

Dew point: 29 °F

Location of Port-aux-FrancaisLocation

Historic Weather in Port-aux-Francais — Graph

°F

Port-aux-Francais temperature yesterday

Maximum temperature yesterday: 61 °F (at 12:00 PM)
Minimum temperature yesterday: 43 °F (at 12:00 AM)
Average temperature yesterday: 53 °F

Past Weeks' High & Low Weather Summary

 TemperatureHumidityPressure
High61 °F (Dec 26, 12:00 PM)91% (Dec 23, 11:00 AM)29.93 "Hg (Dec 23, 11:00 AM)
Low35 °F (Dec 17, 4:00 AM)32% (Dec 16, 2:00 PM)28.88 "Hg (Dec 23, 4:00 PM)
Average48 °F67%29.55 "Hg
* Reported Dec 12 9:00 PM — Dec 27 9:00 PM, Port-aux-Francais, Weather by CustomWeather, © 2014

Note: Actual official high and low records may vary slightly from our data, if they occured in-between our weather recording intervals... More about our weather records

Advertising

Port-aux-Francais weather history for previous 24 hours

 ConditionsComfort  
Time TempWeatherWind HumidityBarometerVisibility
9:00 PM
Dec 27
43 °FQuite cool.13 mph57%29.73 "HgN/A
8:00 PM45 °FQuite cool.24 mph59%29.70 "HgN/A
7:00 PM47 °FCool.17 mph52%29.68 "HgN/A
6:00 PM50 °FCool.18 mph48%29.65 "HgN/A
5:00 PM52 °FCool.10 mph65%29.63 "HgN/A
4:00 PM51 °FCool.7 mph73%29.62 "HgN/A
3:00 PM51 °FCool.8 mph77%29.61 "HgN/A
2:00 PM49 °FCool.12 mph79%29.59 "HgN/A
1:00 PM48 °FCool.13 mph80%29.58 "HgN/A
12:00 PM50 °FCool.10 mph80%29.58 "HgN/A
11:00 AM52 °FCool.6 mph73%29.56 "HgN/A
10:00 AM51 °FCool.1 mph75%29.57 "HgN/A
9:00 AM50 °FCool.3 mph78%29.57 "HgN/A
8:00 AM50 °FCool.3 mph83%29.57 "HgN/A
7:00 AM49 °FCool.9 mph83%29.58 "HgN/A
6:00 AM51 °FCool.9 mph78%29.59 "HgN/A
5:00 AM52 °FCool.18 mph71%29.59 "HgN/A
4:00 AM52 °FCool.20 mph68%29.60 "HgN/A
3:00 AM51 °FCool.2 mph68%29.59 "HgN/A
1:00 AM52 °FCool.7 mph63%29.60 "HgN/A
12:00 AM51 °FCool.20 mph71%29.59 "HgN/A
11:00 PM
Dec 26
52 °FCool.20 mph72%29.57 "HgN/A
10:00 PM53 °FCool.21 mph74%29.55 "HgN/A
Weather by CustomWeather, © 2014

See weather overviewHow to use our weather pages